EW9979 Weather Reports


Display with metric or nautical units.
time (UTC)temp
F
wind
direction
speed
MPH
gust
MPH
rain 1hr
in
rain 24hr
in
rain mn
in
humidity
%
barometer
mb
20260507044531 69 360 5.0 9.0 0.00 0.00 0.00 44 1011.9
20260507043031 70 360 7.0 12.0 0.00 0.00 0.00 43 1011.8
20260507041530 69 360 6.0 10.0 0.00 0.00 0.00 43 1011.7
20260507040037 70 360 9.0 12.0 0.00 0.00 0.00 42 1011.6
20260507034536 70 360 8.0 13.0 0.00 0.00 0.00 42 1011.4
20260507033042 70 360 8.0 11.0 0.00 0.00 0.00 43 1011.4
20260507031544 70 360 5.0 12.0 0.00 0.00 0.00 44 1011.3
20260507030031 71 360 5.0 12.0 0.00 0.00 0.00 45 1011.2
20260507024527 71 360 4.0 15.0 0.00 0.00 0.00 43 1011.0
20260507023026 72 360 7.0 13.0 0.00 0.00 0.00 42 1010.9
20260507021526 73 360 1.0 6.0 0.00 0.00 0.00 40 1010.8
20260507020026 74 360 6.0 12.0 0.00 0.00 0.00 39 1010.8
20260507014535 76 360 8.0 14.0 0.00 0.00 0.00 36 1010.8
20260507013033 77 360 5.0 11.0 0.00 0.00 0.00 33 1010.6
20260507011532 78 18 6.0 13.0 0.00 0.00 0.00 33 1010.6
20260507010029 79 15 4.0 12.0 0.00 0.00 0.00 32 1010.6
20260507004521 80 5 1.0 6.0 0.00 0.00 0.00 25 1010.7
20260507003051 80 11 4.0 10.0 0.00 0.00 0.00 20 1010.6
20260507001525 80 11 10.0 15.0 0.00 0.00 0.00 20 1010.5
20260507000020 80 11 9.0 14.0 0.00 0.00 0.00 20 1010.4
20260506234518 80 11 7.0 14.0 0.00 0.00 0.00 21 1010.4
20260506233017 80 11 11.0 15.0 0.00 0.00 0.00 20 1010.5
20260506231516 80 11 7.0 16.0 0.00 0.00 0.00 20 1010.6
20260506230014 80 10 10.0 15.0 0.00 0.00 0.00 20 1010.7
20260506224512 80 9 10.0 17.0 0.00 0.00 0.00 20 1010.8
20260506223016 80 16 8.0 14.0 0.00 0.00 0.00 20 1011.1
20260506221508 79 360 11.0 16.0 0.00 0.00 0.00 20 1011.3
20260506220007 79 360 5.0 15.0 0.00 0.00 0.00 21 1011.6
20260506214505 79 360 10.0 16.0 0.00 0.00 0.00 21 1011.7
20260506213002 79 360 12.0 16.0 0.00 0.00 0.00 22 1011.8
20260506211501 79 360 6.0 16.0 0.00 0.00 0.00 22 1012.0
20260506210059 78 360 7.0 16.0 0.00 0.00 0.00 23 1012.1
20260506204548 78 360 10.0 16.0 0.00 0.00 0.00 23 1012.3
20260506203043 77 360 7.0 16.0 0.00 0.00 0.00 24 1012.4
20260506201543 77 360 9.0 15.0 0.00 0.00 0.00 24 1012.6
20260506200041 77 360 9.0 19.0 0.00 0.00 0.00 24 1012.8
20260506194541 76 360 12.0 17.0 0.00 0.00 0.00 25 1013.0
20260506193039 76 360 10.0 15.0 0.00 0.00 0.00 24 1013.1
20260506191535 76 360 4.0 13.0 0.00 0.00 0.00 25 1013.2
20260506190038 76 360 10.0 14.0 0.00 0.00 0.00 25 1013.4
20260506184541 75 360 2.0 18.0 0.00 0.00 0.00 25 1013.3
20260506183030 76 360 9.0 14.0 0.00 0.00 0.00 25 1013.4
20260506181528 74 360 9.0 14.0 0.00 0.00 0.00 25 1013.6
20260506180030 74 360 5.0 16.0 0.00 0.00 0.00 25 1013.7
20260506174525 74 360 6.0 11.0 0.00 0.00 0.00 25 1013.7
20260506173030 72 360 2.0 10.0 0.00 0.00 0.00 28 1013.6
20260506171521 72 360 4.0 8.0 0.00 0.00 0.00 28 1013.7
20260506170019 71 360 0.0 5.0 0.00 0.00 0.00 29 1013.6
20260506164516 71 360 3.0 6.0 0.00 0.00 0.00 31 1013.5
20260506163022 70 360 2.0 4.0 0.00 0.00 0.00 34 1013.5
20260506161511 68 360 2.0 5.0 0.00 0.00 0.00 36 1013.5
20260506160006 66 360 2.0 5.0 0.00 0.00 0.00 39 1013.5
20260506154502 65 360 2.0 4.0 0.00 0.00 0.00 41 1013.5
20260506153103 64 360 2.0 5.0 0.00 0.00 0.00 42 1013.6
20260506151557 63 360 1.0 5.0 0.00 0.00 0.00 43 1013.6
20260506150053 62 360 4.0 8.0 0.00 0.00 0.00 44 1013.8
20260506144548 61 360 6.0 10.0 0.00 0.00 0.00 48 1013.7
20260506143045 59 360 6.0 14.0 0.00 0.00 0.00 50 1013.5
20260506141541 58 360 8.0 12.0 0.00 0.00 0.00 51 1013.4
20260506140037 57 360 9.0 14.0 0.00 0.00 0.00 53 1013.4
20260506134531 55 360 7.0 13.0 0.00 0.00 0.00 55 1013.4
20260506133030 55 360 8.0 15.0 0.00 0.00 0.00 55 1013.1
20260506131541 54 360 8.0 13.0 0.00 0.00 0.00 56 1012.9
20260506130029 55 360 10.0 15.0 0.00 0.00 0.00 56 1012.7
20260506124526 55 360 8.0 15.0 0.00 0.00 0.00 56 1012.5
20260506123026 54 360 14.0 18.0 0.00 0.00 0.00 56 1012.3
20260506121525 55 360 11.0 19.0 0.00 0.00 0.00 56 1012.2
20260506120025 54 360 12.0 18.0 0.00 0.00 0.00 57 1012.2
20260506114522 54 360 9.0 17.0 0.00 0.00 0.00 57 1012.2
20260506113022 54 360 12.0 17.0 0.00 0.00 0.00 57 1012.1
20260506111522 54 360 11.0 16.0 0.00 0.00 0.00 58 1012.1
20260506110022 54 360 12.0 17.0 0.00 0.00 0.00 59 1012.2
20260506104517 53 360 12.0 18.0 0.00 0.00 0.00 60 1012.0
20260506103016 53 360 12.0 22.0 0.00 0.00 0.00 60 1012.1
20260506101527 53 360 14.0 20.0 0.00 0.00 0.00 61 1012.1
20260506100014 53 360 12.0 18.0 0.00 0.00 0.00 61 1012.0
20260506094521 53 360 13.0 18.0 0.00 0.00 0.00 61 1012.0
20260506093014 53 360 14.0 18.0 0.00 0.00 0.00 61 1012.0
20260506091513 53 360 11.0 18.0 0.00 0.00 0.00 61 1012.2
20260506090008 53 360 13.0 19.0 0.00 0.00 0.00 60 1012.3
20260506084507 53 360 8.0 14.0 0.00 0.00 0.00 60 1012.4
20260506083005 52 360 11.0 16.0 0.00 0.00 0.00 60 1012.5
20260506081503 52 360 9.0 17.0 0.00 0.00 0.00 60 1012.8
20260506073059 52 360 13.0 20.0 0.00 0.00 0.00 61 1012.8
20260506071559 52 360 12.0 18.0 0.00 0.00 0.00 62 1012.9
20260506061550 53 360 8.0 19.0 0.00 0.00 0.00 59 1012.7